Regional Weather Roundup
Issued by NWS Wakefield, VA

Home | Current Version | Previous Version | Text Only | Print | Product List | Glossary On
Versions: 1 2 3 4 5 6 7 8 9 10 11 12 13 14 15 16 17 18 19 20 21 22 23 24 25 26 27
000
ASUS41 KAKQ 240015
RWRAKQ

REGIONAL WEATHER ROUNDUP
NATIONAL WEATHER SERVICE WAKEFIELD VA
800 PM EDT FRI JUN 23 2017

Note: "fair" indicates few or no clouds below 12,000 feet with no
significant weather and/or obstructions to visibility. * = Denotes
station may not report precipitation (e.g., rain,snow,etc.),
thunder or fog.

VAZ042-051-052>054-056-240100-
NORTHERN VIRGINIA

CITY           SKY/WX    TMP DP  RH WIND       PRES   REMARKS
WASH NATIONAL  MOCLDY    86  74  67 SW15      29.70S
DULLES         MOCLDY    84  72  67 S13       29.70R
FORT BELVOIR   CLEAR     85  72  64 S9        29.70R
QUANTICO       LGT RAIN  86  74  67 SW10      29.72R
FREDERICKSBRG* CLOUDY    85  75  71 S8        29.72S
STAFFORD*      PTCLDY    83  74  72 SW9G16    29.76S
WARRENTON      PTCLDY    85  70  60 SW10G17   29.72R
CULPEPER*      MOCLDY    84  73  68 SW7       29.73R
MANASSAS*      CLOUDY    84  73  69 S12       29.71R
LEESBURG*      PTCLDY   N/A N/A N/A S10       29.71R
WINCHESTER     PTCLDY    82  66  57 SW10      29.70R
FRONT ROYAL*   PTCLDY    82  70  65 SW5       29.70R
LURAY*         MOCLDY    82  70  65 S7        29.74R
$$

VAZ048-049-060>072-079>083-240100-
CENTRAL AND SOUTH CENTRAL VIRGINIA

CITY           SKY/WX    TMP DP  RH WIND       PRES   REMARKS
RICHMOND       MOCLDY    85  72  65 SW12      29.77S
CHESTERFIELD*  FAIR      84  73  69 S8        29.78S
PETERSBURG*    CLEAR     83  70  64 CALM      29.80S
HANOVER        CLEAR     86  70  58 S12       29.77S
TAPPAHANNOCK*  CLEAR     85  65  50 S6        29.76S
QUINTON*       FAIR      86  73  64 S6        29.77S
CHARLOTTSVILLE MOCLDY    84  73  69 SW9       29.75S
GORDONSVILLE*  CLOUDY    83  75  77 SW8       29.74S
ORANGE*        PTCLDY    81  72  74 S8        29.75R
LOUISA*        CLOUDY    86  75  70 S7        29.75S HX  95
BUMPASS*       FAIR      83  75  76 SW5       29.75S
FARMVILLE*     CLOUDY    85  67  54 S9G16     29.77S
CREWE*         FAIR      84  65  53 S5        29.79S
FORT PICKETT*  FAIR      83  67  57 S15G21    29.81R
CHASE CITY*    FAIR      84  71  63 S3        29.82S
CLARKSVILLE*   FAIR      82  72  69 S8        29.82S
SOUTH HILL*    CLEAR     84  72  67 SW9       29.88R
LAWRENCEVILLE* FAIR      83  71  65 MISG      29.82S
EMPORIA*       CLEAR     82  72  69 S3        29.84R
$$

VAZ088>098-240100-
SOUTHEAST VIRGINIA

CITY           SKY/WX    TMP DP  RH WIND       PRES   REMARKS
NORFOLK        CLEAR     88  73  61 SW17G26   29.80S HX  95
VIRGINIA BEACH PTCLDY    86  71  60 SW13      29.80F
NORFOLK NAVAL  PTCLDY    87  72  60 SW13G21   29.81F
WEST POINT*    CLEAR     85  70  59 SW9       29.78S
SALUDA*        FAIR      86  74  68 S8        29.76F
NEWPORT NEWS   CLEAR     86  74  67 SW15      29.79S
LANGLEY AFB    CLEAR     87  74  66 S15       29.79S HX  95
FORT EUSTIS    CLEAR     87  75  67 S12       29.77S HX  95
WILLIAMSBURG*  CLEAR     88  73  62 CALM      29.80S HX  96
HR EXEC AP*    FAIR      84  73  70 SW10G17   29.79R
FRANKLIN*      CLEAR     84  73  70 S6        29.82S
US460-WAKEFLD  CLEAR     85  73  67 SW7       29.80S
$$

VAZ020-022-025-037-045-240100-
WEST CENTRAL AND SOUTHWEST VIRGINIA

CITY           SKY/WX    TMP DP  RH WIND       PRES   REMARKS
STAUNTON*      CLOUDY    81  69  66 SW9       29.79S
WAYNESBORO*    CLOUDY    80  72  76 S6        29.79S
HOT SPRINGS VA PTCLDY    72  59  64 S8        29.93F
LYNCHBURG      PTCLDY    82  70  66 S12       29.80S
DANVILLE       CLEAR     83  71  67 S6        29.82S
SOUTH BOSTON*  FAIR      84  69  60 S7G16     29.82S
MARTINSVILLE   CLEAR     81  67  63 S5        29.85S
ROANOKE        CLOUDY    83  69  62 S8        29.81S
BLACKSBURG     PTCLDY    80  66  63 S9G17     29.89S
DUBLIN*        PTCLDY    81  61  50 S10G17    29.86S
MARION*        CLOUDY    79  63  58 S8G17     29.89F
HILLSVILLE*    PTCLDY    75  60  59 S7G16     29.90S
RICHLANDS*     FAIR      78  61  56 S6        29.84F
WISE*          LGT RAIN  77  63  61 S6        29.83F
ABINGDON*      MOCLDY    83  62  48 SW10G16   29.82F
$$

MDZ021>025-VAZ099-100-240100-
SOUTHERN MARYLAND AND THE DELMARVA PENINSULA

CITY           SKY/WX    TMP DP  RH WIND       PRES   REMARKS
PATUXENT RIVER MOCLDY    85  73  67 SW9       29.72F
BAY BRIDGE APT CLEAR     84  73  70 S8        29.70S
LEONARDTOWN    PTCLDY    84  72  65 SW9       29.74S
DOVER          CLEAR     85  78  79 SW15      29.68S HX  96
GEORGETOWN     CLEAR     86  73  65 SW14      29.73S
EASTON         MOCLDY    86  73  66 SW12      29.74F
CAMBRIDGE      CLEAR     84  73  70 S7G14     29.72S
SALISBURY      CLEAR     84  74  71 S10       29.74S
OCEAN CITY     PTCLDY    79  74  84 SW9       29.76S
WALLOPS ISLAND CLEAR     77  73  87 S10       29.78R
ACCOMACK*      CLEAR     86  73  65 SW10G17   29.78S
$$

NCZ012>017-030>032-240100-
NORTH CENTRAL AND EASTERN NORTH CAROLINA

CITY           SKY/WX    TMP DP  RH WIND       PRES   REMARKS
ROANOKE RAPIDS FAIR      84  73  70 S9        29.83S
RALEIGH        PTCLDY    87  73  62 SW15      29.85S
ELIZABETH CITY CLEAR     86  76  71 S13       29.84S HX  96
AHOSKIE*         N/A     84  73  71 S5        29.84S
EDENTON*       CLEAR     87  76  68 SW10      29.86S HX  97
CURRITUCK*     CLEAR     87  75  66 SW8G16    29.84S HX  96
KILL DEVIL HLS CLEAR     83  76  79 SW7       29.86S
MANTEO         CLEAR     83  76  81 SW21      29.88S
CAPE HATTERAS  CLEAR     81  75  82 SW15G25   29.93S
TARBORO*       NOT AVBL
GOLDSBORO      CLEAR     87  75  67 S7        29.86S HX  96
WASHINGTON     CLEAR    N/A N/A N/A S10       29.87F
GREENVILLE     NOT AVBL
NEW BERN       CLEAR     82  76  81 S13G20    29.92R
WILMINGTON     CLEAR     82  71  69 SW14      29.94S
$$

VAZ048-240100-
ELSEWHERE

CITY           SKY/WX    TMP DP  RH WIND       PRES   REMARKS
HARRISBURG PA  RAIN      80  72  76 SW12G29   29.65R
BALTIMORE      PTCLDY    84  75  74 SW10G17   29.68S
ANNAPOLIS      CLEAR     85  76  74 SW9       29.69S
ANDREWS AFB    CLEAR     84  72  67 S17       29.71R
PHILADELPHIA   MOCLDY    84  72  67 SW16G24   29.67S
HENDERSON NC   CLEAR     82  68  63 SW8       29.85R
GREENSBORO     PTCLDY    84  71  65 SW15G21   29.86R
ROCKY MOUNT    CLEAR     85  73  67 S12       29.85F
$$

VAZ100-240100-
MARINE

STATION/POSITION TIME  TEMP    WIND        PRES    WAVE   SWELL
                       AIR SEA DIR/SP/G            HT/PER HT/PER
                 (UTC) (F)     (DEG/KT/KT) (MB)    (FT/S) (FT/S)
BRANDYWINE LGT   2348          220/ 22/ 23 1006.2F
CAPE MAY NJ      2342   76 70  180/  8/ 10 1006.1S
LEWES DE         2348   86 70  220/  6/ 11 1006.3F
15NM E FENWICK I 2350   72 67  200/ 19/ 21 1007.4S   5/ 5   2/ 9
OCEAN-CITY-INLET 2348   68 65  220/ 14/ 17 1007.9S
WACHAPREAGUE VA  2348   82 81  190/ 10/ 13 1008.3R
THOMAS POINT MD  0000   84 78  210/ 14/ 15   N/A
GOOSES REEF MD   2350   84     240/ 10/ 12 1007.0F
COVE POINT MD    2348   85     210/ 14/ 16 1006.9F
SOLOMONS ISLAND  2348          210/ 11/ 13   N/A
PINEY POINT MD   2336          230/ 15/ 16   N/A
POTOMAC MD       2350   85     220/ 14/ 17 1005.7F
CAMBRIDGE MD     2348                      1007.0F
LEWISETTA VA     2348   86 80  230/ 11/ 15 1006.8F
RAPPAHANNOCK LGT 2336          200/ 17/ 19 1008.9R
STINGRAY PT      2350   84     240/ 12/ 16 1008.9R
YORK RVR RNG VA  2348   84     220/ 16/ 20 1008.8R
YORKTOWN VA      2348   87 77  220/ 10/ 14 1008.2R
JAMESTOWN VA     2350   87     200/ 12/ 16   N/A
DOMINION TERM VA 2336   85     220/ 13/ 16 1009.2F
KIPTOPEKE VA     2336      79  220/ 10/ 12   N/A
CHES BAY BRIDGE  2336   86 71  240/ 19/ 23 1008.8F
CAPE HENRY VA    2336   88     200/ 11/ 17   N/A
WILLOUBY STN VA  2336   87     210/ 21/ 24 1008.8F
S CRANEY ISL VA  2336   88     210/ 12/ 18 1009.1S
CAPE HENRY BUOY  2330      73                N/A     2/ 8
1ST LANDING BUOY 2350   85                 1009.2R
CAPE CHARLES BUO 2351      68                N/A     2/ 9
64NM E OF VA BCH 2350   75 72  210/ 21/ 25 1010.6F   4/ 5   2/ 9
DUCK PIER NC     2336   84 63  200/ 18/ 22 1010.3S
44100 DUCK FRF   2305      69                N/A     3/ 9
OREGON INLET NC  2336   81 83  190/ 25/ 27 1012.1S
HATTERAS NC      2336   80 80  220/ 15/ 20 1013.3S
DIAMOND SHLS NC  2350   81 80  220/ 21/ 25 1013.5F   5/ 5   2/ 9
CAPE LOOKOUT NC  2300   81     210/ 14/ 18 1013.6F
$$




USA.gov is the U.S. government's official web portal to all federal, state and local government web resources and services.